Showing default

ICEYE-X31, 58288

Orbit data source: Space-Track

ICEYE-X31, 58288 is a payload satellite owned by ICEYE (FI) in SSO that was launched on Sat, 11 Nov 2023 UTC via an FALCON 9 launch vehicle from the Air Force Western Test Range (AFWTR). Payload-class satellites include a variety of spacecraft equipped with specific instruments for various scientific and technological missions. These include communications satellites like Starlink; space stations such as the ISS; scientific satellites like the Hubble; Earth observation satellites from companies like Planet Labs, Umbra, and HawkEye 360; GPS; miniature CubeSats for education and research; and military/defense satellites.

Loading next visibility...
Identifier
58288, 2023-174AJ
Orbit
SSO
Country
Flag of FIFI / FIN
Related business
Manufacturer
ICEYE
Mission
Operational Commercial Radar Imaging
Bus & Motor
ICEYE, Unknown motor
Mass
90 kg wet, 89 kg dry
Launch date (UTC)
2023-11-11 (2 years ago)
Launch vehicle
FALCON 9
Launch site
Air Force Western Test Range (AFWTR)
Object type
Payload
Rocket body
Debris
Shape & HBR
Box + 1 Pan, 2.4 m
Radar Cross Section
0.825 m², Medium (>0.1 m² and < 1m²)

Expand to show TLE details & history
Last TLE update: 5 hours ago

TLE from 5 hours ago
0 ICEYE-X31
1 58288U 23174AJ  26126.83388418  .00014449  00000-0  45583-3 0  9998
2 58288  97.3788 202.6301 0003914 115.7304 244.4342 15.32961324138413
Epoch: 2026-05-06T20:00Z
TLE epoch observation values (Epoch: 2026-05-06T20:00:47.593Z)
Latitude
-0.00006°
Longitude
37.74311°
Altitude
471.249 km
Speed
7.63 km/s
True Right ascension
13h 30m 31s
True Declination
0° 00' 00"
Sunlit
Object was in full shadow at epoch
Visualization orbit readout
Latitude
Unknown
Longitude
Unknown
Altitude
Unknown
Speed
Unknown
Apparent Right ascension
Unknown
Apparent Declination
Unknown
Sunlit
N/A
Visualization observer readout
Local Sidereal Time
09:22:27
Azimuth
Unknown
Elevation
Unknown
Doppler factor
Unknown
Orbital elements
Apogee altitude
466.608 km
Perigee altitude
461.252 km
Semi-major axis
6,842.067 km
Eccentricity
0.00039
Inclination
97.3788°
RAAN
202.6301°
Arg. of periapsis
115.7304°
True anomaly
244.39375°
Mean anomaly
244.4342°
Eccentric anomaly
244.41397°
Mean motion
3.83497 °/min
Orbital period
93.87 mins
BSTAR
0.00045583
Loading maneuver chart data...
Computing Atmospheric mass density...
Loading historical data...
Loading historical data...
Loading historical data...
Loading historical data...
Loading historical data...
Loading historical data...
Loading historical data...

Documentation

Showing up to 5 results
|